,,,PA_Meas_PMT16A,,PR_Meas_QMR101_102,,RH_Meas_QMH101,,SR_Meas_QMS101,,TA_Meas_QMH101,,GenWind,,GenWind,
date,time,status,PA,status,PR,status,RH,status,SR,status,TA,status,DirAvg,status,SpdAvg,
2009-06-15, 00:00:05,VALID,1009.48,VALID,0,VALID,91.1125,VALID,0.105969,VALID,23.4974,VALID,65,VALID,0,
2009-06-15, 00:01:05,VALID,1009.45,VALID,0,VALID,91.082,VALID,0,VALID,23.4992,VALID,65,VALID,0,
2009-06-15, 00:02:05,VALID,1009.45,VALID,0,VALID,91.1125,VALID,0,VALID,23.4797,VALID,65,VALID,0,
2009-06-15, 00:03:05,VALID,1009.45,VALID,0,VALID,91.0896,VALID,0,VALID,23.4602,VALID,65,VALID,0,
2009-06-15, 00:04:05,VALID,1009.42,VALID,0,VALID,91.1049,VALID,0,VALID,23.4602,VALID,65,VALID,0,
2009-06-15, 00:05:05,VALID,1009.42,VALID,0,VALID,91.1049,VALID,0,VALID,23.4194,VALID,65,VALID,0,
2009-06-15, 00:06:05,VALID,1009.39,VALID,0,VALID,91.1201,VALID,0,VALID,23.4407,VALID,65,VALID,0,
2009-06-15, 00:07:05,VALID,1009.39,VALID,0,VALID,91.143,VALID,0,VALID,23.4212,VALID,65,VALID,0,
2009-06-15, 00:08:05,VALID,1009.39,VALID,0,VALID,91.1354,VALID,0,VALID,23.4017,VALID,65,VALID,0,
2009-06-15, 00:09:05,VALID,1009.4,VALID,0,VALID,91.143,VALID,0,VALID,23.3805,VALID,65,VALID,0,
2009-06-15, 00:10:05,VALID,1009.38,VALID,0,VALID,91.1811,VALID,0,VALID,23.4017,VALID,65,VALID,0,
2009-06-15, 00:11:05,VALID,1009.41,VALID,0,VALID,91.1583,VALID,0,VALID,23.3823,VALID,65,VALID,0,
2009-06-15, 00:12:05,VALID,1009.37,VALID,0,VALID,91.1964,VALID,0,VALID,23.3823,VALID,65,VALID,0,
2009-06-15, 00:13:05,VALID,1009.36,VALID,0,VALID,91.1964,VALID,0,VALID,23.3415,VALID,65,VALID,0,
2009-06-15, 00:14:05,VALID,1009.33,VALID,0,VALID,91.2345,VALID,0,VALID,23.3433,VALID,65,VALID,0,
2009-06-15, 00:15:05,VALID,1009.34,VALID,0,VALID,91.2193,VALID,0,VALID,23.3433,VALID,65,VALID,0,
2009-06-15, 00:16:05,VALID,1009.31,VALID,0,VALID,91.2421,VALID,0,VALID,23.3415,VALID,65,VALID,0,
2009-06-15, 00:17:05,VALID,1009.3,VALID,0,VALID,91.2421,VALID,0.105969,VALID,23.3415,VALID,65,VALID,0,
2009-06-15, 00:18:05,VALID,1009.31,VALID,0,VALID,91.2574,VALID,0.105969,VALID,23.322,VALID,65,VALID,0,
2009-06-15, 00:19:05,VALID,1009.29,VALID,0,VALID,91.265,VALID,0.105969,VALID,23.322,VALID,65,VALID,0,
2009-06-15, 00:20:05,VALID,1009.28,VALID,0,VALID,91.3031,VALID,0.105969,VALID,23.3026,VALID,65,VALID,0,
2009-06-15, 00:21:05,VALID,1009.27,VALID,0,VALID,91.3031,VALID,0.105969,VALID,23.3026,VALID,65,VALID,0,
2009-06-15, 00:22:05,VALID,1009.25,VALID,0,VALID,91.3184,VALID,0.105969,VALID,23.3026,VALID,65,VALID,0,
2009-06-15, 00:23:05,VALID,1009.24,VALID,0,VALID,91.3413,VALID,0,VALID,23.3026,VALID,65,VALID,0,
2009-06-15, 00:24:05,VALID,1009.23,VALID,0,VALID,91.3565,VALID,0.105969,VALID,23.3026,VALID,65,VALID,0,
2009-06-15, 00:25:05,VALID,1009.21,VALID,0,VALID,91.3794,VALID,0.105969,VALID,23.2831,VALID,65,VALID,0,
2009-06-15, 00:26:05,VALID,1009.22,VALID,0,VALID,91.3718,VALID,0.105969,VALID,23.2831,VALID,65,VALID,0,
2009-06-15, 00:27:05,VALID,1009.2,VALID,0,VALID,91.3947,VALID,0.105969,VALID,23.2831,VALID,65,VALID,0,
2009-06-15, 00:28:05,VALID,1009.2,VALID,0,VALID,91.4099,VALID,0.105969,VALID,23.2636,VALID,65,VALID,0,
2009-06-15, 00:29:05,VALID,1009.18,VALID,0,VALID,91.4099,VALID,0.105969,VALID,23.2831,VALID,65,VALID,0,
2009-06-15, 00:30:05,VALID,1009.17,VALID,0,VALID,91.4023,VALID,0.105969,VALID,23.3026,VALID,65,VALID,0,
2009-06-15, 00:31:05,VALID,1009.18,VALID,0,VALID,91.4175,VALID,0.105969,VALID,23.3026,VALID,65,VALID,0,
2009-06-15, 00:32:05,VALID,1009.17,VALID,0,VALID,91.4252,VALID,0.105969,VALID,23.2831,VALID,65,VALID,0,
2009-06-15, 00:33:05,VALID,1009.17,VALID,0,VALID,91.4328,VALID,0.105969,VALID,23.2831,VALID,65,VALID,0,
2009-06-15, 00:34:05,VALID,1009.15,VALID,0,VALID,91.4252,VALID,0.105969,VALID,23.2831,VALID,65,VALID,0,
2009-06-15, 00:35:05,VALID,1009.15,VALID,0,VALID,91.4328,VALID,0.105969,VALID,23.2618,VALID,65,VALID,0,
2009-06-15, 00:36:05,VALID,1009.14,VALID,0,VALID,91.4404,VALID,0.105969,VALID,23.2831,VALID,65,VALID,0,
2009-06-15, 00:37:05,VALID,1009.11,VALID,0,VALID,91.4404,VALID,0.105969,VALID,23.2636,VALID,65,VALID,0,
2009-06-15, 00:38:05,VALID,1009.11,VALID,0,VALID,91.448,VALID,0.105969,VALID,23.2441,VALID,65,VALID,0,
2009-06-15, 00:39:05,VALID,1009.11,VALID,0,VALID,91.4404,VALID,0.105969,VALID,23.2034,VALID,65,VALID,0,
2009-06-15, 00:40:05,VALID,1009.08,VALID,0,VALID,91.4328,VALID,0.105969,VALID,23.2246,VALID,65,VALID,0,
2009-06-15, 00:41:05,VALID,1009.07,VALID,0,VALID,91.448,VALID,0,VALID,23.2246,VALID,65,VALID,0,
2009-06-15, 00:42:05,VALID,1009.03,VALID,0,VALID,91.4404,VALID,0.105969,VALID,23.2051,VALID,77,VALID,0,
2009-06-15, 00:43:05,VALID,1009.02,VALID,0,VALID,91.448,VALID,0.105969,VALID,23.1839,VALID,93,VALID,0.483984,
2009-06-15, 00:44:05,VALID,1009.01,VALID,0,VALID,91.4404,VALID,0.105969,VALID,23.2051,VALID,93,VALID,0.419531,
2009-06-15, 00:45:05,VALID,1008.98,VALID,0,VALID,91.4252,VALID,0.105969,VALID,23.2051,VALID,93,VALID,0.310937,
2009-06-15, 00:46:05,VALID,1008.96,VALID,0,VALID,91.4328,VALID,0,VALID,23.2069,VALID,74,VALID,0.298828,
2009-06-15, 00:47:05,VALID,1008.94,VALID,0,VALID,91.4557,VALID,0,VALID,23.2264,VALID,74,VALID,0.111719,
2009-06-15, 00:48:05,VALID,1008.95,VALID,0,VALID,91.4328,VALID,0,VALID,23.2069,VALID,74,VALID,0,
2009-06-15, 00:49:05,VALID,1008.92,VALID,0,VALID,91.4252,VALID,0,VALID,23.2069,VALID,74,VALID,0,
2009-06-15, 00:50:05,VALID,1008.91,VALID,0,VALID,91.4404,VALID,0,VALID,23.2069,VALID,74,VALID,0,
2009-06-15, 00:51:05,VALID,1008.89,VALID,0,VALID,91.4328,VALID,0,VALID,23.2069,VALID,74,VALID,0,
2009-06-15, 00:52:05,VALID,1008.89,VALID,0,VALID,91.4175,VALID,0,VALID,23.2069,VALID,74,VALID,0,
2009-06-15, 00:53:05,VALID,1008.88,VALID,0,VALID,91.4404,VALID,0,VALID,23.1874,VALID,74,VALID,0.170312,
2009-06-15, 00:54:05,VALID,1008.91,VALID,0,VALID,91.4328,VALID,0,VALID,23.1467,VALID,74,VALID,0,
2009-06-15, 00:55:05,VALID,1008.89,VALID,0,VALID,91.4328,VALID,0,VALID,23.1874,VALID,74,VALID,0,
2009-06-15, 00:56:05,VALID,1008.88,VALID,0,VALID,91.4328,VALID,0,VALID,23.1874,VALID,74,VALID,0,
2009-06-15, 00:57:05,VALID,1008.9,VALID,0,VALID,91.4404,VALID,0,VALID,23.1679,VALID,74,VALID,0,
2009-06-15, 00:58:05,VALID,1008.89,VALID,0,VALID,91.4557,VALID,0,VALID,23.1467,VALID,74,VALID,0.0988281,
2009-06-15, 00:59:05,VALID,1008.92,VALID,0,VALID,91.4557,VALID,0,VALID,23.1662,VALID,74,VALID,0,
2009-06-15, 01:00:05,VALID,1008.94,VALID,0,VALID,91.448,VALID,0,VALID,23.1679,VALID,74,VALID,0,
2009-06-15, 01:01:05,VALID,1008.9,VALID,0,VALID,91.4557,VALID,0,VALID,23.1874,VALID,74,VALID,0,
2009-06-15, 01:02:05,VALID,1008.91,VALID,0,VALID,91.4633,VALID,0,VALID,23.1467,VALID,74,VALID,0,
2009-06-15, 01:03:05,VALID,1008.88,VALID,0,VALID,91.4785,VALID,0,VALID,23.1679,VALID,74,VALID,0,
2009-06-15, 01:04:05,VALID,1008.89,VALID,0,VALID,91.4862,VALID,0,VALID,23.1467,VALID,74,VALID,0,
2009-06-15, 01:05:05,VALID,1008.89,VALID,0,VALID,91.4938,VALID,0,VALID,23.1485,VALID,74,VALID,0,
2009-06-15, 01:06:05,VALID,1008.88,VALID,0,VALID,91.4862,VALID,0,VALID,23.1679,VALID,74,VALID,0,
2009-06-15, 01:07:05,VALID,1008.84,VALID,0,VALID,91.4938,VALID,0,VALID,23.1679,VALID,74,VALID,0,
2009-06-15, 01:08:05,VALID,1008.81,VALID,0,VALID,91.5014,VALID,0,VALID,23.1485,VALID,74,VALID,0,
2009-06-15, 01:09:05,VALID,1008.79,VALID,0,VALID,91.5167,VALID,0,VALID,23.1485,VALID,74,VALID,0,
2009-06-15, 01:10:05,VALID,1008.82,VALID,0,VALID,91.5243,VALID,0,VALID,23.129,VALID,74,VALID,0,
2009-06-15, 01:11:05,VALID,1008.81,VALID,0,VALID,91.5243,VALID,0,VALID,23.1272,VALID,74,VALID,0,
2009-06-15, 01:12:05,VALID,1008.8,VALID,0,VALID,91.5243,VALID,0,VALID,23.1077,VALID,74,VALID,0,
2009-06-15, 01:13:05,VALID,1008.81,VALID,0,VALID,91.509,VALID,0,VALID,23.129,VALID,74,VALID,0,
2009-06-15, 01:14:05,VALID,1008.83,VALID,0,VALID,91.5319,VALID,0,VALID,23.1272,VALID,74,VALID,0,
2009-06-15, 01:15:05,VALID,1008.83,VALID,0,VALID,91.5319,VALID,0,VALID,23.1272,VALID,74,VALID,0,
2009-06-15, 01:16:05,VALID,1008.81,VALID,0,VALID,91.5319,VALID,0,VALID,23.1272,VALID,74,VALID,0,
2009-06-15, 01:17:05,VALID,1008.83,VALID,0,VALID,91.5548,VALID,0,VALID,23.1679,VALID,74,VALID,0,
2009-06-15, 01:18:05,VALID,1008.83,VALID,0,VALID,91.5624,VALID,0,VALID,23.1077,VALID,74,VALID,0,
2009-06-15, 01:19:05,VALID,1008.79,VALID,0,VALID,91.57,VALID,0,VALID,23.1485,VALID,74,VALID,0,
2009-06-15, 01:20:05,VALID,1008.79,VALID,0,VALID,91.57,VALID,0,VALID,23.129,VALID,74,VALID,0,
2009-06-15, 01:21:05,VALID,1008.77,VALID,0,VALID,91.57,VALID,0,VALID,23.1485,VALID,74,VALID,0,
2009-06-15, 01:22:05,VALID,1008.79,VALID,0,VALID,91.57,VALID,0,VALID,23.1679,VALID,74,VALID,0,
2009-06-15, 01:23:05,VALID,1008.78,VALID,0,VALID,91.57,VALID,0.105969,VALID,23.2069,VALID,74,VALID,0,
2009-06-15, 01:24:05,VALID,1008.77,VALID,0,VALID,91.5624,VALID,0,VALID,23.2069,VALID,74,VALID,0,
2009-06-15, 01:25:05,VALID,1008.76,VALID,0,VALID,91.57,VALID,0,VALID,23.2264,VALID,74,VALID,0,
2009-06-15, 01:26:05,VALID,1008.74,VALID,0,VALID,91.5624,VALID,0,VALID,23.2264,VALID,74,VALID,0,
2009-06-15, 01:27:05,VALID,1008.77,VALID,0,VALID,91.5395,VALID,0,VALID,23.2459,VALID,74,VALID,0,
2009-06-15, 01:28:05,VALID,1008.76,VALID,0,VALID,91.5319,VALID,0,VALID,23.2264,VALID,74,VALID,0,
2009-06-15, 01:29:05,VALID,1008.73,VALID,0,VALID,91.5014,VALID,0,VALID,23.2051,VALID,74,VALID,0,
2009-06-15, 01:30:05,VALID,1008.74,VALID,0,VALID,91.4938,VALID,0,VALID,23.2051,VALID,74,VALID,0,
2009-06-15, 01:31:05,VALID,1008.74,VALID,0,VALID,91.4938,VALID,0,VALID,23.2264,VALID,74,VALID,0,
2009-06-15, 01:32:05,VALID,1008.73,VALID,0,VALID,91.4709,VALID,0,VALID,23.2264,VALID,74,VALID,0,
2009-06-15, 01:33:05,VALID,1008.72,VALID,0,VALID,91.4633,VALID,0,VALID,23.2282,VALID,74,VALID,0,
2009-06-15, 01:34:05,VALID,1008.74,VALID,0,VALID,91.4633,VALID,0,VALID,23.1857,VALID,74,VALID,0,
2009-06-15, 01:35:05,VALID,1008.71,VALID,0,VALID,91.4328,VALID,0,VALID,23.1874,VALID,74,VALID,0,
2009-06-15, 01:36:05,VALID,1008.72,VALID,0,VALID,91.4023,VALID,0,VALID,23.1485,VALID,74,VALID,0,
2009-06-15, 01:37:05,VALID,1008.71,VALID,0,VALID,91.4023,VALID,0,VALID,23.1095,VALID,74,VALID,0,
2009-06-15, 01:38:05,VALID,1008.7,VALID,0,VALID,91.3336,VALID,0,VALID,23.0705,VALID,74,VALID,0,
2009-06-15, 01:39:05,VALID,1008.69,VALID,0,VALID,91.3031,VALID,0,VALID,23.0103,VALID,74,VALID,0,
2009-06-15, 01:40:05,VALID,1008.67,VALID,0,VALID,91.265,VALID,0,VALID,23.0121,VALID,74,VALID,0,
2009-06-15, 01:41:05,VALID,1008.65,VALID,0,VALID,91.2421,VALID,0,VALID,22.9926,VALID,74,VALID,0,
2009-06-15, 01:42:05,VALID,1008.65,VALID,0,VALID,91.2345,VALID,0,VALID,22.9536,VALID,74,VALID,0,
2009-06-15, 01:43:05,VALID,1008.62,VALID,0,VALID,91.2345,VALID,0,VALID,22.9536,VALID,74,VALID,0,
2009-06-15, 01:44:05,VALID,1008.61,VALID,0,VALID,91.2726,VALID,0,VALID,22.9519,VALID,74,VALID,0,
2009-06-15, 01:45:05,VALID,1008.58,VALID,0,VALID,91.2879,VALID,0,VALID,23.0121,VALID,74,VALID,0,
2009-06-15, 01:46:05,VALID,1008.58,VALID,0,VALID,91.326,VALID,0,VALID,23.0316,VALID,74,VALID,0,
2009-06-15, 01:47:05,VALID,1008.55,VALID,0,VALID,91.3413,VALID,0,VALID,23.0103,VALID,74,VALID,0,
2009-06-15, 01:48:05,VALID,1008.57,VALID,0,VALID,91.3489,VALID,0,VALID,23.0316,VALID,74,VALID,0,
2009-06-15, 01:49:05,VALID,1008.57,VALID,0,VALID,91.3794,VALID,0,VALID,23.0103,VALID,74,VALID,0,
2009-06-15, 01:50:05,VALID,1008.54,VALID,0,VALID,91.3947,VALID,0,VALID,23.0316,VALID,74,VALID,0,
2009-06-15, 01:51:05,VALID,1008.54,VALID,0,VALID,91.4099,VALID,0,VALID,23.0121,VALID,74,VALID,0,
2009-06-15, 01:52:05,VALID,1008.52,VALID,0,VALID,91.4175,VALID,0,VALID,22.9926,VALID,74,VALID,0,
2009-06-15, 01:53:05,VALID,1008.48,VALID,0,VALID,91.4328,VALID,0,VALID,22.9926,VALID,74,VALID,0,
2009-06-15, 01:54:05,VALID,1008.48,VALID,0,VALID,91.4557,VALID,0,VALID,22.9926,VALID,74,VALID,0,
2009-06-15, 01:55:05,VALID,1008.47,VALID,0,VALID,91.4633,VALID,0,VALID,23.0121,VALID,74,VALID,0,
2009-06-15, 01:56:05,VALID,1008.43,VALID,0,VALID,91.4709,VALID,0,VALID,22.9714,VALID,74,VALID,0,
2009-06-15, 01:57:05,VALID,1008.45,VALID,0,VALID,91.4862,VALID,0,VALID,22.9731,VALID,74,VALID,0,
2009-06-15, 01:58:05,VALID,1008.43,VALID,0,VALID,91.509,VALID,0,VALID,22.9731,VALID,74,VALID,0,
2009-06-15, 01:59:05,VALID,1008.46,VALID,0,VALID,91.4938,VALID,0,VALID,22.9536,VALID,74,VALID,0,
2009-06-15, 02:00:05,VALID,1008.45,VALID,0,VALID,91.509,VALID,0,VALID,22.9519,VALID,74,VALID,0,
2009-06-15, 02:01:05,VALID,1008.42,VALID,0,VALID,91.5014,VALID,0,VALID,22.9536,VALID,74,VALID,0,
2009-06-15, 02:02:05,VALID,1008.42,VALID,0,VALID,91.5319,VALID,0,VALID,22.9749,VALID,74,VALID,0,
2009-06-15, 02:03:05,VALID,1008.43,VALID,0,VALID,91.5395,VALID,0,VALID,22.9536,VALID,74,VALID,0,
2009-06-15, 02:04:05,VALID,1008.4,VALID,0,VALID,91.5395,VALID,0,VALID,22.9536,VALID,74,VALID,0,
2009-06-15, 02:05:05,VALID,1008.4,VALID,0,VALID,91.5853,VALID,0,VALID,22.9324,VALID,74,VALID,0,
2009-06-15, 02:06:05,VALID,1008.37,VALID,0,VALID,91.5853,VALID,0,VALID,22.9731,VALID,74,VALID,0.00664063,
2009-06-15, 02:07:05,VALID,1008.37,VALID,0,VALID,91.5929,VALID,0,VALID,22.9926,VALID,74,VALID,0.292188,
2009-06-15, 02:08:04,VALID,1008.36,VALID,0,VALID,91.6158,VALID,0,VALID,22.9731,VALID,74,VALID,0.210547,
2009-06-15, 02:09:04,VALID,1008.35,VALID,0,VALID,91.6158,VALID,0,VALID,22.9731,VALID,74,VALID,0.0746094,
2009-06-15, 02:10:04,VALID,1008.35,VALID,0,VALID,91.6005,VALID,0,VALID,22.9926,VALID,74,VALID,0,
2009-06-15, 02:11:04,VALID,1008.31,VALID,0,VALID,91.5929,VALID,0,VALID,22.9519,VALID,74,VALID,0,
2009-06-15, 02:12:04,VALID,1008.32,VALID,0,VALID,91.6082,VALID,0,VALID,22.9324,VALID,74,VALID,0,
2009-06-15, 02:13:04,VALID,1008.31,VALID,0,VALID,91.6082,VALID,0,VALID,22.9342,VALID,74,VALID,0,
2009-06-15, 02:14:04,VALID,1008.31,VALID,0,VALID,91.6387,VALID,0,VALID,22.8935,VALID,74,VALID,0,
2009-06-15, 02:15:04,VALID,1008.3,VALID,0,VALID,91.6158,VALID,0,VALID,22.8952,VALID,74,VALID,0,
2009-06-15, 02:16:04,VALID,1008.3,VALID,0,VALID,91.6005,VALID,0,VALID,22.874,VALID,74,VALID,0,
2009-06-15, 02:17:04,VALID,1008.31,VALID,0,VALID,91.6082,VALID,0,VALID,22.8545,VALID,74,VALID,0,
2009-06-15, 02:18:04,VALID,1008.32,VALID,0,VALID,91.6082,VALID,0,VALID,22.874,VALID,74,VALID,0,
2009-06-15, 02:19:04,VALID,1008.28,VALID,0,VALID,91.6158,VALID,0,VALID,22.8935,VALID,74,VALID,0,
2009-06-15, 02:20:04,VALID,1008.29,VALID,0,VALID,91.6234,VALID,0,VALID,22.9129,VALID,74,VALID,0,
2009-06-15, 02:21:04,VALID,1008.27,VALID,0,VALID,91.6311,VALID,0,VALID,22.9129,VALID,74,VALID,0,
2009-06-15, 02:22:04,VALID,1008.26,VALID,0,VALID,91.6539,VALID,0,VALID,22.9129,VALID,74,VALID,0,
2009-06-15, 02:23:04,VALID,1008.29,VALID,0,VALID,91.6463,VALID,0,VALID,22.9147,VALID,74,VALID,0.275,
2009-06-15, 02:24:04,VALID,1008.28,VALID,0,VALID,91.6539,VALID,0,VALID,22.8935,VALID,52,VALID,0.438281,
2009-06-15, 02:25:04,VALID,1008.28,VALID,0,VALID,91.6463,VALID,0,VALID,22.8952,VALID,49,VALID,0.345703,
2009-06-15, 02:26:04,VALID,1008.27,VALID,0,VALID,91.6387,VALID,0,VALID,22.8545,VALID,49,VALID,0.396484,
2009-06-15, 02:27:04,VALID,1008.29,VALID,0,VALID,91.6463,VALID,0,VALID,22.8545,VALID,48,VALID,0,
2009-06-15, 02:28:04,VALID,1008.26,VALID,0,VALID,91.6616,VALID,0.105969,VALID,22.8757,VALID,48,VALID,0,
2009-06-15, 02:29:04,VALID,1008.27,VALID,0,VALID,91.6539,VALID,0,VALID,22.835,VALID,48,VALID,0,
2009-06-15, 02:30:04,VALID,1008.29,VALID,0,VALID,91.6768,VALID,0,VALID,22.8562,VALID,48,VALID,0,
2009-06-15, 02:31:04,VALID,1008.29,VALID,0,VALID,91.6844,VALID,0,VALID,22.8368,VALID,48,VALID,0,
2009-06-15, 02:32:04,VALID,1008.28,VALID,0,VALID,91.6616,VALID,0,VALID,22.8173,VALID,48,VALID,0,
2009-06-15, 02:33:04,VALID,1008.3,VALID,0,VALID,91.6768,VALID,0,VALID,22.8173,VALID,48,VALID,0,
2009-06-15, 02:34:04,VALID,1008.3,VALID,0,VALID,91.6768,VALID,0,VALID,22.7978,VALID,48,VALID,0,
2009-06-15, 02:35:04,VALID,1008.28,VALID,0,VALID,91.6768,VALID,0,VALID,22.7978,VALID,48,VALID,0,
2009-06-15, 02:36:04,VALID,1008.28,VALID,0,VALID,91.6921,VALID,0,VALID,22.7766,VALID,48,VALID,0,
2009-06-15, 02:37:04,VALID,1008.25,VALID,0,VALID,91.7073,VALID,0,VALID,22.7978,VALID,48,VALID,0,
2009-06-15, 02:38:04,VALID,1008.24,VALID,0,VALID,91.7073,VALID,0,VALID,22.7766,VALID,48,VALID,0,
2009-06-15, 02:39:04,VALID,1008.24,VALID,0,VALID,91.7149,VALID,0,VALID,22.7766,VALID,48,VALID,0,
2009-06-15, 02:40:04,VALID,1008.2,VALID,0,VALID,91.7226,VALID,0,VALID,22.7783,VALID,48,VALID,0,
2009-06-15, 02:41:04,VALID,1008.2,VALID,0,VALID,91.7149,VALID,0,VALID,22.7783,VALID,48,VALID,0,
2009-06-15, 02:42:04,VALID,1008.19,VALID,0,VALID,91.7378,VALID,0,VALID,22.7783,VALID,48,VALID,0,
2009-06-15, 02:43:04,VALID,1008.21,VALID,0,VALID,91.7378,VALID,0,VALID,22.7588,VALID,48,VALID,0,
2009-06-15, 02:44:04,VALID,1008.25,VALID,0,VALID,91.7073,VALID,0,VALID,22.7376,VALID,48,VALID,0,
2009-06-15, 02:45:04,VALID,1008.27,VALID,0,VALID,91.7226,VALID,0,VALID,22.7376,VALID,48,VALID,0,
2009-06-15, 02:46:04,VALID,1008.28,VALID,0,VALID,91.7454,VALID,0,VALID,22.7376,VALID,48,VALID,0,
2009-06-15, 02:47:04,VALID,1008.31,VALID,0,VALID,91.7454,VALID,0,VALID,22.7376,VALID,48,VALID,0,
2009-06-15, 02:48:04,VALID,1008.31,VALID,0,VALID,91.7454,VALID,0,VALID,22.7588,VALID,48,VALID,0,
2009-06-15, 02:49:04,VALID,1008.3,VALID,0,VALID,91.7607,VALID,0,VALID,22.7783,VALID,48,VALID,0,
2009-06-15, 02:50:04,VALID,1008.29,VALID,0,VALID,91.7607,VALID,0,VALID,22.7571,VALID,48,VALID,0,
2009-06-15, 02:51:04,VALID,1008.26,VALID,0,VALID,91.7683,VALID,0,VALID,22.7571,VALID,48,VALID,0,
2009-06-15, 02:52:04,VALID,1008.26,VALID,0,VALID,91.7607,VALID,0,VALID,22.7571,VALID,48,VALID,0,
2009-06-15, 02:53:04,VALID,1008.28,VALID,0,VALID,91.7836,VALID,0,VALID,22.7376,VALID,48,VALID,0,
2009-06-15, 02:54:04,VALID,1008.27,VALID,0,VALID,91.7607,VALID,0,VALID,22.7376,VALID,48,VALID,0,
2009-06-15, 02:55:04,VALID,1008.26,VALID,0,VALID,91.7759,VALID,0,VALID,22.7394,VALID,48,VALID,0,
2009-06-15, 02:56:04,VALID,1008.28,VALID,0,VALID,91.7759,VALID,0,VALID,22.7394,VALID,48,VALID,0,
2009-06-15, 02:57:04,VALID,1008.26,VALID,0,VALID,91.7607,VALID,0,VALID,22.7394,VALID,48,VALID,0,
2009-06-15, 02:58:04,VALID,1008.24,VALID,0,VALID,91.7836,VALID,0,VALID,22.7199,VALID,48,VALID,0,
2009-06-15, 02:59:04,VALID,1008.27,VALID,0,VALID,91.7836,VALID,0,VALID,22.7394,VALID,48,VALID,0,
2009-06-15, 03:00:04,VALID,1008.26,VALID,0,VALID,91.7988,VALID,0,VALID,22.7394,VALID,48,VALID,0,
2009-06-15, 03:01:04,VALID,1008.27,VALID,0,VALID,91.8064,VALID,0,VALID,22.7182,VALID,48,VALID,0,
2009-06-15, 03:02:04,VALID,1008.27,VALID,0,VALID,91.8064,VALID,0,VALID,22.7394,VALID,48,VALID,0,
2009-06-15, 03:03:04,VALID,1008.3,VALID,0,VALID,91.8217,VALID,0,VALID,22.7199,VALID,48,VALID,0,
2009-06-15, 03:04:04,VALID,1008.29,VALID,0,VALID,91.8217,VALID,0,VALID,22.7199,VALID,49,VALID,0,
2009-06-15, 03:05:04,VALID,1008.31,VALID,0,VALID,91.8217,VALID,0,VALID,22.7004,VALID,48,VALID,0,
2009-06-15, 03:06:04,VALID,1008.33,VALID,0,VALID,91.8064,VALID,0,VALID,22.6809,VALID,48,VALID,0,
2009-06-15, 03:07:04,VALID,1008.32,VALID,0,VALID,91.7988,VALID,0,VALID,22.642,VALID,48,VALID,0,
2009-06-15, 03:08:04,VALID,1008.35,VALID,0,VALID,91.8217,VALID,0,VALID,22.6225,VALID,48,VALID,0,
2009-06-15, 03:09:04,VALID,1008.36,VALID,0,VALID,91.8141,VALID,0,VALID,22.603,VALID,48,VALID,0,
2009-06-15, 03:10:04,VALID,1008.38,VALID,0,VALID,91.8064,VALID,0,VALID,22.603,VALID,48,VALID,0,
2009-06-15, 03:11:04,VALID,1008.38,VALID,0,VALID,91.7988,VALID,0,VALID,22.5835,VALID,48,VALID,0,
2009-06-15, 03:12:04,VALID,1008.37,VALID,0,VALID,91.7988,VALID,0,VALID,22.6013,VALID,48,VALID,0,
2009-06-15, 03:13:04,VALID,1008.38,VALID,0,VALID,91.7912,VALID,0,VALID,22.6208,VALID,48,VALID,0,
2009-06-15, 03:14:04,VALID,1008.36,VALID,0,VALID,91.8064,VALID,0,VALID,22.6402,VALID,48,VALID,0,
2009-06-15, 03:15:04,VALID,1008.36,VALID,0,VALID,91.837,VALID,0,VALID,22.603,VALID,48,VALID,0,
2009-06-15, 03:16:04,VALID,1008.38,VALID,0,VALID,91.8446,VALID,0,VALID,22.5039,VALID,48,VALID,0,
2009-06-15, 03:17:04,VALID,1008.35,VALID,0,VALID,91.837,VALID,0,VALID,22.5251,VALID,48,VALID,0,
2009-06-15, 03:18:04,VALID,1008.35,VALID,0,VALID,91.8446,VALID,0,VALID,22.5251,VALID,48,VALID,0,
2009-06-15, 03:19:04,VALID,1008.33,VALID,0,VALID,91.8293,VALID,0,VALID,22.5056,VALID,48,VALID,0,
2009-06-15, 03:20:04,VALID,1008.32,VALID,0,VALID,91.8217,VALID,0,VALID,22.5039,VALID,48,VALID,0,
2009-06-15, 03:21:04,VALID,1008.32,VALID,0,VALID,91.837,VALID,0,VALID,22.5251,VALID,48,VALID,0,
2009-06-15, 03:22:04,VALID,1008.32,VALID,0,VALID,91.8446,VALID,0,VALID,22.5234,VALID,48,VALID,0,
2009-06-15, 03:23:04,VALID,1008.28,VALID,0,VALID,91.8446,VALID,0,VALID,22.5429,VALID,48,VALID,0,
2009-06-15, 03:24:04,VALID,1008.28,VALID,0,VALID,91.8446,VALID,0,VALID,22.5835,VALID,48,VALID,0,
2009-06-15, 03:25:04,VALID,1008.28,VALID,0,VALID,91.8675,VALID,0,VALID,22.5623,VALID,48,VALID,0,
2009-06-15, 03:26:04,VALID,1008.27,VALID,0,VALID,91.8598,VALID,0,VALID,22.564,VALID,48,VALID,0,
2009-06-15, 03:27:04,VALID,1008.3,VALID,0,VALID,91.8751,VALID,0,VALID,22.5446,VALID,48,VALID,0,
2009-06-15, 03:28:04,VALID,1008.27,VALID,0,VALID,91.8827,VALID,0,VALID,22.5234,VALID,48,VALID,0,
2009-06-15, 03:29:04,VALID,1008.26,VALID,0,VALID,91.8675,VALID,0,VALID,22.5446,VALID,48,VALID,0,
2009-06-15, 03:30:04,VALID,1008.26,VALID,0,VALID,91.8903,VALID,0,VALID,22.5056,VALID,48,VALID,0,
2009-06-15, 03:31:04,VALID,1008.26,VALID,0,VALID,91.8903,VALID,0,VALID,22.5234,VALID,48,VALID,0,
2009-06-15, 03:32:04,VALID,1008.24,VALID,0,VALID,91.8827,VALID,0,VALID,22.5446,VALID,48,VALID,0,
2009-06-15, 03:33:04,VALID,1008.24,VALID,0,VALID,91.9056,VALID,0,VALID,22.5234,VALID,48,VALID,0,
2009-06-15, 03:34:04,VALID,1008.24,VALID,0,VALID,91.9132,VALID,0,VALID,22.5234,VALID,48,VALID,0,
2009-06-15, 03:35:04,VALID,1008.26,VALID,0,VALID,91.898,VALID,0,VALID,22.5251,VALID,48,VALID,0,
2009-06-15, 03:36:04,VALID,1008.28,VALID,0,VALID,91.9056,VALID,0,VALID,22.5056,VALID,48,VALID,0,
2009-06-15, 03:37:04,VALID,1008.27,VALID,0,VALID,91.9056,VALID,0,VALID,22.5234,VALID,48,VALID,0,
2009-06-15, 03:38:04,VALID,1008.26,VALID,0,VALID,91.9132,VALID,0,VALID,22.564,VALID,48,VALID,0,
2009-06-15, 03:39:04,VALID,1008.24,VALID,0,VALID,91.9132,VALID,0,VALID,22.603,VALID,48,VALID,0,
2009-06-15, 03:40:04,VALID,1008.25,VALID,0,VALID,91.9132,VALID,0,VALID,22.642,VALID,48,VALID,0,
2009-06-15, 03:41:04,VALID,1008.25,VALID,0,VALID,91.9056,VALID,0,VALID,22.6809,VALID,48,VALID,0,
2009-06-15, 03:42:04,VALID,1008.24,VALID,0,VALID,91.9208,VALID,0,VALID,22.7004,VALID,48,VALID,0,
2009-06-15, 03:43:04,VALID,1008.26,VALID,0,VALID,91.9361,VALID,0,VALID,22.7004,VALID,48,VALID,0,
2009-06-15, 03:44:04,VALID,1008.24,VALID,0,VALID,91.9437,VALID,0,VALID,22.7004,VALID,48,VALID,0,
2009-06-15, 03:45:04,VALID,1008.24,VALID,0,VALID,91.9513,VALID,0,VALID,22.6792,VALID,48,VALID,0,
2009-06-15, 03:46:04,VALID,1008.22,VALID,0,VALID,91.9513,VALID,0,VALID,22.7004,VALID,48,VALID,0,
2009-06-15, 03:47:04,VALID,1008.2,VALID,0,VALID,91.9437,VALID,0,VALID,22.6809,VALID,48,VALID,0,
2009-06-15, 03:48:04,VALID,1008.21,VALID,0,VALID,91.959,VALID,0,VALID,22.6809,VALID,48,VALID,0,
2009-06-15, 03:49:04,VALID,1008.21,VALID,0,VALID,91.9666,VALID,0,VALID,22.6614,VALID,48,VALID,0,
2009-06-15, 03:50:04,VALID,1008.17,VALID,0,VALID,91.9513,VALID,0,VALID,22.6614,VALID,49,VALID,0,
2009-06-15, 03:51:04,VALID,1008.2,VALID,0,VALID,91.9666,VALID,0,VALID,22.642,VALID,48,VALID,0,
2009-06-15, 03:52:04,VALID,1008.18,VALID,0,VALID,91.9742,VALID,0,VALID,22.6013,VALID,48,VALID,0,
2009-06-15, 03:53:04,VALID,1008.19,VALID,0,VALID,91.9513,VALID,0,VALID,22.6225,VALID,48,VALID,0,
2009-06-15, 03:54:04,VALID,1008.2,VALID,0,VALID,91.9742,VALID,0,VALID,22.5818,VALID,48,VALID,0,
2009-06-15, 03:55:04,VALID,1008.22,VALID,0,VALID,91.9742,VALID,0,VALID,22.5835,VALID,48,VALID,0,
2009-06-15, 03:56:04,VALID,1008.21,VALID,0,VALID,91.9818,VALID,0,VALID,22.5623,VALID,48,VALID,0,
2009-06-15, 03:57:04,VALID,1008.24,VALID,0,VALID,91.9742,VALID,0,VALID,22.564,VALID,48,VALID,0,
2009-06-15, 03:58:04,VALID,1008.23,VALID,0,VALID,91.9666,VALID,0,VALID,22.5429,VALID,48,VALID,0,
2009-06-15, 03:59:04,VALID,1008.23,VALID,0,VALID,91.9742,VALID,0,VALID,22.5446,VALID,48,VALID,0,